Showing default

ORBCOMM FM 108, 41187

Orbit data source: Space-Track

ORBCOMM FM 108, 41187 is a payload satellite owned by Orbcomm (US) in LEO that was launched on Tue, 22 Dec 2015 UTC via an FALCON 9 launch vehicle from the Air Force Eastern Test Range (AFETR). Payloads include a variety of satellites, spacecraft, and rockets equipped with specific instruments for various scientific and technological missions. These include communications satellites like Starlink; space stations such as the ISS; scientific satellites like the Hubble; Earth observation satellites from companies like Planet Labs, Umbra, and HawkEye 360; GPS; miniature CubeSats for education and research; and military/defense satellites.

Loading next visibility...
ORBCOMM FM 108 details
Identifier
41187, 2015-081J
Orbit
LEO
Last TLE update6 hours ago
Origin
Flag of USOrbcomm (US / ORB)
ManufacturerSNC Louisville
MissionOperational Commercial Communications
Bus & MotorSN-100A, Unknown motor
Mass172 kg wet, 158 kg dry
Launch date (UTC)
2015-12-22 (9 years ago)
Launch vehicle
FALCON 9
Launch site
Air Force Eastern Test Range (AFETR)
Object type
Payload
Rocket body
Debris
Shape & HBRBox + 1 Pan + 1 Ant, 13 m
Radar Cross Section2.222 m², Medium (>0.1 m² and < 1m²)

Expand to show TLE details & history

TLE from 6 hours ago
0 ORBCOMM FM 108
1 41187U 15081J   24361.26610776  .00001814  00000-0  43084-3 0  9993
2 41187  47.0033 203.2889 0002947 222.5942 137.4715 14.57639378481565
Epoch: 2024-12-26T06:23Z
Definitive object data (Epoch: 2024-12-26T06:23:11.71Z)
Latitude-0.00002°
Longitude12.24212°
Altitude702.56 km
Speed7.505 km/s
True Right ascension13h 33m 09s
True Declination0° 00' 00"
Sunlit
Object was in daylight at TLE epoch
Visualization TLE readout
Latitude9.76715°
Longitude-178.06435°
Altitude699.147 km
Speed7.509 km/s
Apparent Right ascension00h 16m 44s
Apparent Declination-13° 50' 44"
Sunlit
Object is in daylight
Visualization observer readout
Local Sidereal Time11:26:25
Azimuth333.522° NNW
Elevation-61.688°
Doppler factor1
Orbital elements
Apogee altitude704.127 km
Perigee altitude699.954 km
Semi-major axis7,080.177 km
Eccentricity0.0002947
Inclination47.0033°
RAAN203.2889°
Arg. of periapsis222.5942°
True anomaly137.49432°
Mean anomaly137.4715°
Eccentric anomaly137.48291°
Mean motion3.64315 °/min
BSTAR0.00043084
Orbital period98.82 mins
Loading maneuver chart data...
Loading historical data...
Loading historical data...
Loading historical data...
Loading historical data...
Loading historical data...
Loading historical data...
Loading historical data...

ORBCOMM FM 108 Visibility forecast

Observer location: undefined°, undefined

Span
Click to sort rows by Start time (UTC) header in descending order
Start Az.
Max El. time (UTC)
Max El. Az.
Max El.
End time (UTC)
End Az.
9 mins2024-12-26 16:24:58.092Z212.207° SW2024-12-26 16:29:58.092Z131.303° SE33.863°2024-12-26 16:33:58.092Z73.352° E
8 mins2024-12-26 18:09:58.092Z266.821° W2024-12-26 18:12:58.092Z329.309° NNW39.848°2024-12-26 18:17:58.092Z58.452° ENE
7 mins2024-12-26 19:53:58.092Z299.861° NW2024-12-26 19:56:58.092Z348.662° N30.265°2024-12-26 20:00:58.092Z60.814° ENE
8 mins2024-12-26 21:37:58.092Z306.078° NW2024-12-26 21:41:58.092Z38.394° NE38.702°2024-12-26 21:45:58.092Z96.327° ESE
7 mins2024-12-26 23:21:58.092Z281.413° WNW2024-12-26 23:24:58.092Z223.263° SW35.464°2024-12-26 23:28:58.092Z149.078° SSE
|